This demonstration page uses our WeatherBlox Daily Observations layout. Learn more.

Left ArrowRight Arrow

Hourly Observations for June 1, 2021

Temp ( °F °C ) Dew Point ( °F °C ) Humidity (%) Winds ( mph kmh ) Pressure ( in mb ) Visibility ( mi km ) Precip ( " mm )
12:15 am 00:15 Clear 54 12.1 51 10.7 91 91 N N/A 30.21 1023 10 16 N/A
12:35 am 00:35 Clear 54 12.1 51 10.5 90 90 N N/A 30.21 1023 7 11 N/A
12:55 am 00:55 Clear 53 11.7 51 10.3 91 91 N N/A 30.21 1023 7 11 N/A
1:15 am 01:15 Clear 53 11.6 51 10.3 92 92 N N/A 30.21 1023 10 16 N/A
1:35 am 01:35 Clear 53 11.6 51 10.3 92 92 N N/A 30.21 1023 10 16 N/A
1:55 am 01:55 Clear 51 10.6 50 9.9 95 95 N N/A 30.22 1023 10 16 N/A
2:15 am 02:15 Clear 51 10.6 49 9.7 94 94 N N/A 30.21 1023 10 16 N/A
2:35 am 02:35 Clear 50 10 49 9.3 95 95 N N/A 30.21 1023 10 16 N/A
2:55 am 02:55 Clear 49 9.6 48 9.1 97 97 N 3 6 30.20 1023 10 16 N/A
3:15 am 03:15 Clear 49 9.3 48 8.8 97 97 N N/A 30.21 1023 7 11 N/A
3:35 am 03:35 Clear 49 9.5 48 9 97 97 N N/A 30.21 1023 10 16 N/A
3:55 am 03:55 Clear 49 9.4 48 8.8 96 96 N N/A 30.21 1023 7 11 N/A
4:15 am 04:15 Clear 48 8.8 47 8.2 96 96 N N/A 30.21 1023 10 16 N/A
4:35 am 04:35 Clear 47 8.6 47 8.1 97 97 N N/A 30.21 1023 7 11 N/A
4:55 am 04:55 Clear 47 8.1 46 7.6 97 97 WNW 3 6 30.22 1023 7 11 N/A
5:15 am 05:15 Clear with Mist and Fog 47 8.1 46 7.7 97 97 WNW 3 6 30.22 1023 5 8 N/A
5:35 am 05:35 Clear 47 8.1 46 7.7 97 97 N N/A 30.22 1023 7 11 N/A
5:55 am 05:55 Clear 46 8 46 7.5 97 97 W 3 6 30.22 1023 7 11 N/A
6:15 am 06:15 Sunny with Mist and Fog 46 7.5 45 7.1 97 97 N N/A 30.22 1024 5 8 N/A
6:35 am 06:35 Mostly Cloudy with Fog 46 7.5 45 7.2 98 98 N N/A 30.22 1024 1 1 N/A
6:55 am 06:55 Cloudy with Fog 46 7.5 45 7.2 98 98 N N/A 30.22 1024 0 0 N/A
7:15 am 07:15 Cloudy with Mist and Fog 48 9 48 8.7 98 98 N N/A 30.21 1023 1 1 N/A
7:35 am 07:35 Sunny with Mist and Fog 50 10 50 9.8 99 99 N N/A 30.20 1023 4 6 N/A
7:55 am 07:55 Sunny with Mist and Fog 52 11 51 10.6 97 97 N N/A 30.19 1022 4 6 N/A
8:15 am 08:15 Sunny 53 11.9 53 11.4 97 97 N N/A 30.18 1022 7 11 N/A
8:35 am 08:35 Sunny 56 13.1 54 12.1 94 94 N N/A 30.17 1022 10 16 N/A
8:55 am 08:55 Sunny 58 14.3 55 12.6 90 90 N N/A 30.16 1021 10 16 N/A
9:15 am 09:15 Sunny 60 15.6 55 12.8 84 84 NW 3 6 30.15 1021 10 16 N/A
9:35 am 09:35 Sunny 62 16.7 55 13 79 79 N N/A 30.15 1021 10 16 N/A
9:55 am 09:55 Sunny 63 17.4 54 12.2 72 72 N N/A 30.13 1020 10 16 N/A
10:15 am 10:15 Sunny 64 17.7 53 11.4 67 67 N N/A 30.13 1020 10 16 N/A
10:35 am 10:35 Sunny 65 18.5 51 10.8 61 61 N N/A 30.12 1020 10 16 N/A
10:55 am 10:55 Sunny 66 18.7 51 10.4 59 59 ESE 5 7 30.12 1020 10 16 N/A
11:15 am 11:15 Sunny 67 19.4 51 10.5 57 57 E 7 11 30.12 1020 10 16 N/A
11:35 am 11:35 Partly Cloudy 68 19.8 51 10.8 56 56 SE 5 7 30.10 1019 10 16 N/A
11:55 am 11:55 Partly Cloudy 69 20.3 51 10.5 53 53 SE 9 15 30.10 1019 10 16 N/A
12:15 pm 12:15 Sunny 68 20.1 51 10.4 54 54 SE 7 11 30.10 1019 10 16 N/A
12:35 pm 12:35 Sunny 70 20.9 51 10.7 52 52 SSE 9 15 30.08 1019 10 16 N/A
12:55 pm 12:55 Partly Cloudy 69 20.5 51 10.4 52 52 SSE 6 9 30.08 1019 10 16 N/A
1:15 pm 13:15 Partly Cloudy 69 20.7 48 8.8 47 47 SE 9 15 30.08 1018 10 16 N/A
1:35 pm 13:35 Partly Cloudy 70 21.2 49 9.6 48 48 SSE 8 13 30.06 1018 10 16 N/A
1:55 pm 13:55 Partly Cloudy 71 21.8 50 10.1 47 47 S 7 11 30.05 1017 10 16 N/A
2:15 pm 14:15 Partly Cloudy 71 21.6 48 8.9 44 44 N N/A 30.04 1017 10 16 N/A
2:35 pm 14:35 Partly Cloudy 71 21.6 47 8.4 43 43 S 9 15 30.04 1017 10 16 N/A
2:55 pm 14:55 Partly Cloudy 71 21.8 48 8.8 44 44 S 7 11 30.03 1017 10 16 N/A
3:15 pm 15:15 Partly Cloudy 71 21.4 48 8.9 45 45 ESE 8 13 30.03 1017 10 16 N/A
3:35 pm 15:35 Partly Cloudy 72 22.2 46 8 40 40 SE 5 7 30.01 1016 10 16 N/A
3:55 pm 15:55 Partly Cloudy 73 22.5 47 8.4 41 41 ESE 7 11 30.01 1016 10 16 N/A
4:15 pm 16:15 Sunny 73 22.6 48 8.9 42 42 SSE 8 13 30.00 1016 10 16 N/A
4:35 pm 16:35 Partly Cloudy 72 22.3 48 8.8 42 42 ESE 6 9 30.00 1016 10 16 N/A
4:55 pm 16:55 Partly Cloudy 73 22.6 49 9.5 43 43 SSE 8 13 29.99 1016 10 16 N/A
5:15 pm 17:15 Mostly Cloudy 72 22.2 49 9.3 44 44 ESE 7 11 29.98 1015 10 16 N/A
5:35 pm 17:35 Mostly Cloudy 72 22.4 48 9.1 43 43 S 10 17 29.98 1015 10 16 N/A
5:55 pm 17:55 Partly Cloudy 71 21.4 48 8.9 45 45 SE 7 11 29.98 1015 10 16 N/A
6:15 pm 18:15 Partly Cloudy 72 22 47 8.4 42 42 SSE 3 6 29.97 1015 10 16 N/A
6:35 pm 18:35 Mostly Cloudy 71 21.4 49 9.2 46 46 SE 6 9 29.97 1015 10 16 N/A
6:55 pm 18:55 Mostly Cloudy 72 22.1 47 8.6 42 42 SE 8 13 29.96 1015 10 16 N/A
7:15 pm 19:15 Partly Cloudy 71 21.8 48 9 44 44 ESE 5 7 29.97 1015 10 16 N/A
7:35 pm 19:35 Sunny 70 21.3 46 7.6 41 41 SE 7 11 29.97 1015 10 16 N/A
7:55 pm 19:55 Mostly Cloudy 70 21 46 7.9 43 43 SE 9 15 29.98 1015 10 16 N/A
8:15 pm 20:15 Mostly Cloudy 69 20.6 48 8.7 47 47 ESE 10 17 29.99 1015 10 16 N/A
8:35 pm 20:35 Partly Cloudy 67 19.5 48 8.8 50 50 ESE 9 15 30.00 1016 10 16 N/A
8:55 pm 20:55 Sunny 65 18.4 49 9.2 55 55 ESE 8 13 30.01 1016 10 16 N/A
9:15 pm 21:15 Clear 64 18 48 9 56 56 ESE 8 13 30.02 1017 10 16 N/A
9:35 pm 21:35 Clear 63 17.1 49 9.4 61 61 SE 7 11 30.03 1017 10 16 N/A
9:55 pm 21:55 Clear 61 16 50 9.8 67 67 ESE 7 11 30.05 1017 10 16 N/A
10:15 pm 22:15 Partly Cloudy 61 16.1 49 9.5 65 65 SE 7 11 30.05 1017 10 16 N/A
10:35 pm 22:35 Partly Cloudy 61 15.9 49 9.5 66 66 SE 7 11 30.05 1018 10 16 N/A
10:55 pm 22:55 Clear 59 15 49 9.7 71 71 SE 6 9 30.06 1018 10 16 N/A
11:15 pm 23:15 Clear 59 15.1 49 9.7 70 70 SE 6 9 30.05 1018 10 16 N/A
11:35 pm 23:35 Clear 58 14.3 49 9.7 74 74 SSE 6 9 30.06 1018 10 16 N/A
11:55 pm 23:55 Clear 55 13 49 9.6 80 80 S 6 9 30.06 1018 10 16 N/A

Powered by AerisWeather